GW1675 Weather Reports


time (UTC)temp
C
wind
direction
speed
KPH
gust
KPH
rain 1hr
cm
rain 24hr
cm
rain mn
cm
humidity
%
barometer
mb
20260504081552 16 188 9.7 19.3 0.00 0.00 0.00 76 1018.8
20260504044542 13 197 8.0 14.5 0.00 0.00 0.00 76 1017.2
20260504043054 13 198 8.0 14.5 0.00 0.00 0.00 76 1017.2
20260504041551 13 198 8.0 12.9 0.00 0.00 0.00 76 1017.1
20260504040057 13 198 9.7 20.9 0.00 0.00 0.00 76 1017.1
20260504034552 13 198 8.0 16.1 0.00 0.00 0.00 76 1017.1
20260504033057 13 198 6.4 17.7 0.00 0.00 0.00 76 1017.0
20260504031552 13 199 6.4 16.1 0.00 0.00 0.00 76 1017.1
20260504030051 13 198 4.8 16.1 0.00 0.00 0.00 76 1017.0
20260504024550 14 199 6.4 11.3 0.00 0.00 0.00 76 1016.9
20260504023045 14 198 4.8 14.5 0.00 0.00 0.00 76 1016.7
20260504021552 14 199 3.2 11.3 0.00 0.00 0.00 76 1016.7
20260504020103 14 199 4.8 8.0 0.00 0.00 0.00 76 1016.9
20260504014550 14 198 3.2 9.7 0.00 0.00 0.00 76 1016.8
20260504013053 14 198 3.2 8.0 0.00 0.00 0.00 76 1016.9
20260504011548 13 198 1.6 4.8 0.00 0.00 0.00 75 1016.8
20260504010044 13 0 0.0 4.8 0.00 0.00 0.00 75 1017.1
20260504004551 13 198 1.6 4.8 0.00 0.00 0.00 75 1017.2
20260504003047 13 0 0.0 3.2 0.00 0.00 0.00 75 1017.3
20260504001553 13 198 1.6 8.0 0.00 0.00 0.00 74 1017.4
20260504000049 13 198 3.2 6.4 0.00 0.00 0.00 74 1017.5
20260503234549 14 198 0.0 4.8 0.00 0.00 0.00 74 1017.5
20260503233044 14 199 3.2 8.0 0.00 0.00 0.00 74 1017.5
20260503231546 15 198 3.2 6.4 0.00 0.00 0.00 74 1017.5
20260503230059 15 199 3.2 6.4 0.00 0.00 0.00 74 1017.6
20260503224544 15 3.2 4.8 0.00 0.00 0.00 74 1017.6
20260503223041 15 198 1.6 6.4 0.00 0.00 0.00 74 1017.7
20260503221542 15 198 1.6 3.2 0.00 0.00 0.00 74 1017.5
20260503220048 15 198 1.6 4.8 0.00 0.00 0.00 74 1017.5
20260503214547 16 199 3.2 4.8 0.00 0.00 0.00 74 1017.5
20260503213044 16 198 3.2 8.0 0.00 0.00 0.00 74 1017.4
20260503211603 16 198 3.2 4.8 0.00 0.00 0.00 74 1017.3
20260503210043 16 198 3.2 6.4 0.00 0.00 0.00 74 1017.0
20260503204549 16 198 4.8 8.0 0.00 0.00 0.00 74 1016.8
20260503203049 16 198 4.8 8.0 0.00 0.00 0.00 73 1016.6
20260503201552 16 198 6.4 12.9 0.00 0.00 0.00 73 1016.3
20260503200056 16 198 8.0 14.5 0.00 0.00 0.00 73 1016.0
20260503194545 17 198 9.7 16.1 0.00 0.00 0.00 73 1015.8
20260503193052 17 199 8.0 19.3 0.00 0.00 0.00 72 1015.8
20260503191545 17 199 11.3 17.7 0.00 0.00 0.00 72 1015.7
20260503190050 18 199 12.9 20.9 0.00 0.00 0.00 72 1015.5
20260503184558 18 199 9.7 24.1 0.00 0.00 0.00 72 1015.3
20260503183050 18 199 12.9 25.7 0.00 0.00 0.00 72 1015.3
20260503181607 19 201 12.9 24.1 0.00 0.00 0.00 72 1015.3
20260503174551 19 202 14.5 32.2 0.00 0.00 0.00 72 1015.2
20260503173059 20 195 16.1 29.0 0.00 0.00 0.00 72 1015.3
20260503171548 20 191 14.5 27.4 0.00 0.00 0.00 72 1015.2